Location: Guijasalbas
(40.8192°N, 4.2806°W)
Time: 18:15:12
(UTC+00:00)

Daily predictions for brighter satellites

Satellite Brightness Start Highest point End
(mag) Time Altitude Azimuth Time Altitude Azimuth Time Altitude Azimuth
Cosmos 1092 Rocket 4.1 20:12:10 10° S 20:18:28 74° E 20:24:48 10° N
Cosmos 1674 3.1 20:17:46 10° SSE 20:20:58 36° E 20:24:11 10° NNE
Cosmos 1515 Rocket 4.0 20:18:13 10° SSE 20:22:14 40° E 20:26:17 10° NNE
Lacrosse 5 rocket 3.2 20:19:46 10° WNW 20:23:09 24° WSW 20:26:26 10° S
SL-16 R/B 3.9 20:20:30 10° N 20:24:29 19° NE 20:28:27 10° E
Atlas Centaur 2 3.6 20:18:22 10° WSW 20:25:38 38° S 20:33:09 10° ESE
Cosmos 2082 Rocket 2.2 20:20:12 10° SSW 20:25:55 83° ESE 20:31:39 10° NNE
Cosmos 1633 Rocket 3.1 20:22:11 10° N 20:26:36 85° E 20:30:57 10° S
Cosmos 2369 4.0 20:21:58 10° NNW 20:27:38 58° ENE 20:33:15 10° SE
Cosmos 1470 3.9 20:24:37 10° NNE 20:27:44 25° ENE 20:30:50 10° SE
CARTOSAT-1 4.0 20:27:51 10° S 20:32:03 62° W 20:36:17 10° NNW
Cosmos 2251 Rocket 3.8 20:29:04 10° SSW 20:34:20 74° WNW 20:39:40 10° NNE
Okean O Rocket 1.9 20:30:14 10° S 20:34:37 72° W 20:39:00 10° NNW
Tiangong -2.2 20:33:13 10° W 20:36:23 89° S 20:39:33 10° E
ARGOS Delta rocket 4.4 20:32:18 10° SE 20:36:26 37° ENE 20:40:30 10° N
DELTA 2 DEB (DPAF) 4.5 20:32:31 10° N 20:36:43 66° WNW 20:40:53 10° SSW
Cosmos 1470 Rocket 3.5 20:35:19 10° N 20:39:41 73° E 20:43:58 10° SSE
KORONAS-FOTON 3.9 20:37:07 10° S 20:40:42 53° E 20:44:21 10° NNE
Terra 3.0 20:39:36 10° ESE 20:43:26 27° ENE 20:47:21 10° NNE
Cosmos 407 Rocket 4.4 20:39:47 10° SW 20:44:52 52° WNW 20:49:57 10° N
Cosmos 1842 3.0 20:41:33 10° S 20:45:10 67° E 20:48:48 10° NNE
Cosmos 2026 Rocket 4.4 20:39:12 10° SSW 20:45:20 68° W 20:51:27 10° N
Meteor 2-12 Rocket 4.5 20:40:37 10° S 20:46:41 67° E 20:52:48 10° NNE
EXPRESS MD2 3.6 20:46:55 10° WSW 20:50:24 47° NNW 20:52:45 10° NE
Cosmos 1697 Rocket 4.2 20:45:42 10° NW 20:50:36 32° WSW 20:55:29 10° SSW
Cosmos 540 Rocket 3.7 20:48:58 10° N 20:54:03 56° ENE 20:58:18 14° SE
MetOp-B 4.2 20:52:06 10° SSE 20:57:21 71° ENE 21:02:42 10° N
Cosmos 1954 Rocket 4.0 20:55:35 10° SSW 21:00:52 85° ESE 21:06:11 10° NNE
Resurs 01 Rocket 3.5 20:57:34 10° SSW 21:01:21 28° W 21:05:09 10° NW
COSMOS 2406 3.8 20:56:28 10° SW 21:02:10 64° WNW 21:07:54 10° NNE
Cosmos 1933 Rocket 3.6 20:59:31 10° N 21:03:57 67° E 21:07:36 15° SSE
CZ-4C R/B 3.7 21:03:25 10° N 21:07:33 72° WNW 21:11:39 10° SSW
Cosmos 1980 Rocket 2.9 21:02:37 10° NNW 21:08:06 50° WSW 21:13:32 10° S
Cosmos 2322 Rocket 3.6 21:03:54 10° N 21:08:36 26° NE 21:12:36 13° ESE
Meteor 1-13 Rocket 4.3 21:04:59 10° S 21:10:45 68° E 21:16:26 10° NNE
Cosmos 676 Rocket 4.0 21:05:41 10° SSW 21:11:00 85° ESE 21:16:21 10° NNE
MOS 1 4.5 21:05:27 10° S 21:11:04 72° WSW 21:16:43 10° NNW
SeaSat 1 2.6 21:07:45 17° SE 21:11:27 63° ENE 21:16:18 10° NNW
Cosmos 1707 2.9 21:10:34 10° SSW 21:14:08 66° W 21:17:43 10° N
MOS 1 Rocket 4.0 21:14:17 18° SE 21:18:01 49° ENE 21:23:09 10° N
Cosmos 2278 3.9 21:13:25 10° NNW 21:19:06 61° ENE 21:22:56 21° SE
Cosmos 1400 Rocket 2.9 21:21:49 21° SSE 21:24:11 54° E 21:27:58 10° NNE
USA 234 3.6 21:19:31 10° NE 21:26:02 71° NW 21:32:31 10° WSW
Cosmos 2237 4.3 21:26:51 10° NNW 21:32:35 69° ENE 21:36:03 24° SE
Cosmos 1707 Rocket 4.3 21:31:38 26° SE 21:33:20 36° E 21:37:24 10° NNE
SPOT 5 3.4 21:29:47 13° S 21:33:23 46° W 21:37:35 10° NNW
Meteor 2-10 Rocket 4.0 21:27:58 10° N 21:33:23 49° ENE 21:36:16 25° SE
ERS-1 Rocket 3.0 21:32:04 19° S 21:35:39 79° WSW 21:40:43 10° NNW
Cosmos 2219 Rocket 4.1 21:31:53 10° N 21:35:42 18° NE 21:39:27 10° E
ATLAS CENTAUR R/B 1.3 21:35:13 36° SE 21:35:51 40° ESE 21:39:10 10° NE
Landsat 5 4.0 21:33:11 10° NNE 21:36:56 37° E 21:38:05 30° SE
Cosmos 841 Rocket 3.7 21:33:16 10° NNW 21:38:30 61° ENE 21:41:16 27° SE
SJ 16-02 2.5 21:39:28 23° ESE 21:39:45 23° E 21:43:10 10° NE
Meteor 1-4 Rocket 4.5 21:41:42 12° ENE 21:41:42 12° ENE 21:42:21 10° NE
SL-27 R/B 3.4 21:41:51 23° ENE 21:41:51 23° ENE 21:43:23 10° NE
Okean 3 4.4 21:41:42 26° ESE 21:42:23 28° E 21:45:57 10° NNE
Spot 2 Rocket 3.4 21:40:09 24° SSE 21:43:14 90° ESE 21:48:20 10° NNW
Cosmos 1953 4.5 21:45:25 10° NE 21:47:02 12° ENE 21:47:31 12° ENE
Aureole 3 4.1 21:49:38 31° ESE 21:50:09 33° E 21:54:03 10° NNE
Cosmos 1441 Rocket 4.1 21:46:47 10° NNW 21:50:12 41° W 21:52:05 22° SSW
S3M 4.0 21:44:14 10° N 21:50:37 85° W 21:54:50 23° S
Meteor 1-23 Rocket 4.2 21:49:43 17° S 21:54:10 88° W 21:59:56 10° N
Meteor 1-15 Rocket 4.2 21:49:51 10° NNW 21:55:26 80° W 21:58:41 26° S
Cosmos 1655 Rocket 4.0 21:51:23 20° S 21:56:05 83° E 22:02:31 10° N
Cosmos 1300 2.6 21:52:57 10° N 21:56:29 59° E 21:57:03 50° SE
USA 245 4.2 21:56:10 24° SW 21:57:36 36° W 22:01:16 10° NNW
Cosmos 1733 Rocket 3.3 21:53:54 10° N 21:58:13 53° E 21:59:30 39° SE
Spot 1 4.2 21:54:21 10° NNE 21:58:54 75° ESE 22:01:15 30° S
Cosmos 2360 Rocket 2.7 21:54:29 10° NNW 21:59:59 48° ENE 22:02:32 29° ESE
Cosmos 2266 Rocket 4.4 21:54:23 10° SSW 22:00:38 64° W 22:06:59 10° N
SL-14 R/B 3.2 22:04:47 37° SSW 22:06:08 74° W 22:09:57 10° N
ATLAS 2AS CENTAUR R/B 3.2 22:01:11 10° NNW 22:07:48 51° NE 22:11:32 25° ESE
Cosmos 2228 Rocket 3.1 22:05:35 30° SSW 22:07:48 81° W 22:12:24 10° N
Ariane Rocket 3.4 22:05:08 26° S 22:07:53 56° W 22:12:54 10° NNW
Cosmos 2333 Rocket 2.6 22:03:03 10° NNW 22:08:40 52° ENE 22:11:07 32° ESE
MetOp-A 4.1 22:07:04 37° SSE 22:09:07 70° ENE 22:14:22 10° N
SL-16 R/B 2.3 22:03:29 10° NNW 22:09:08 70° WSW 22:11:42 33° S
Cosmos 807 4.2 22:08:48 69° SSE 22:09:09 82° E 22:12:17 10° N
Tiangong -0.3 22:10:12 10° W 22:11:54 23° WSW 22:11:54 23° WSW
Okean 1-7 3.6 22:13:21 38° ESE 22:13:42 39° E 22:17:44 10° NNE
RESURS DK-1 2.2 22:10:06 10° NNW 22:14:11 89° WSW 22:14:58 58° SSE
Atlas Centaur 2 3.5 22:06:53 10° WSW 22:14:22 38° S 22:16:48 31° SSE
Cosmos 1833 4.1 22:16:37 28° SSW 22:19:43 78° ESE 22:25:21 10° NNE
Cosmos 1850 Rocket 4.4 22:15:59 14° SSW 22:20:26 61° WNW 22:25:37 10° NNE
Terra 3.2 22:18:18 19° SW 22:20:53 31° W 22:25:05 10° NNW
Cosmos 1346 Rocket 2.6 22:17:02 10° N 22:20:54 83° W 22:21:25 65° S
SPOT 3 Rocket 4.3 22:21:20 26° SSW 22:23:50 44° W 22:28:46 10° NNW
USA 281 3.6 22:28:55 30° ESE 22:31:57 53° ENE 22:38:19 10° NNW
Meteor 1-16 Rocket 4.3 22:27:05 10° N 22:33:02 76° E 22:35:01 44° SSE
Cosmos 1758 4.3 22:31:54 10° NNW 22:35:33 38° W 22:36:22 34° WSW
CZ-3 Stage 3 4.3 21:55:44 10° W 22:39:24 57° SSW 22:45:18 29° SE
Cosmos 2333 4.3 22:34:07 10° NNW 22:39:54 72° ENE 22:41:39 46° SE
CZ-4C R/B 3.9 22:42:24 13° E 22:42:24 13° E 22:43:18 10° ENE
Cosmos 968 Rocket 4.0 22:39:21 23° SW 22:42:27 56° WNW 22:47:33 10° N
CZ-2C R/B 3.5 22:38:53 10° NNE 22:43:17 70° ESE 22:43:37 66° SE
Cosmos 1703 Rocket 3.6 22:48:43 63° ESE 22:48:51 64° E 22:53:16 10° NNE
SeaSat 1 4.5 22:47:28 14° SW 22:49:14 17° WSW 22:52:19 10° WNW
SL-08 R/B 4.3 22:48:53 45° S 22:50:52 81° E 22:56:59 10° N
Cosmos 1814 Rocket 3.9 22:46:05 10° NNW 22:51:24 89° WSW 22:52:30 58° SSE
Cosmos 2322 Rocket 2.7 22:47:25 10° NW 22:52:52 48° WSW 22:54:24 39° SSW
Okean 2 3.4 22:54:53 68° W 22:55:01 69° W 22:59:01 10° N
Cosmos 2297 Rocket 3.8 22:57:55 19° E 22:57:55 19° E 23:01:09 10° NE
DNEPR-1 R/B 4.4 22:51:26 10° NNW 22:57:55 65° NE 22:59:29 46° ESE
PSLV R/B 3.9 22:58:47 10° NNE 23:02:28 74° NE 23:02:28 74° NE
Cosmos 1455 2.6 23:00:31 10° N 23:03:18 54° NNW 23:03:18 54° NNW
COSMOS 2455 3.2 23:12:16 43° ESE 23:12:23 43° ESE 23:18:03 10° NE
ATLAS CENTAUR R/B 3.9 23:11:25 10° W 23:13:40 16° NW 23:15:58 10° N
COSMOS 2428 3.4 23:08:43 10° NNW 23:14:12 46° ENE 23:15:44 38° ESE
Cosmos 1315 Rocket 3.9 23:15:10 36° W 23:15:32 37° WNW 23:19:15 10° N
ARIANE 5 R/B 2.7 23:16:54 64° W 23:16:54 64° W 23:21:10 10° NNW
SJ 16-02 3.0 23:16:11 22° WSW 23:17:56 29° WNW 23:21:42 10° N
Cosmos 2219 Rocket 2.1 23:14:35 10° NNW 23:20:15 75° WSW 23:21:08 62° S
Cosmos 1953 3.2 23:19:28 10° NNW 23:22:38 40° WNW 23:22:38 40° WNW
BREEZE-M DEB (TANK) 4.5 23:28:53 10° WNW 23:29:48 22° WNW 23:29:48 22° WNW
Cosmos 1745 Rocket 4.0 23:30:01 52° SSW 23:31:41 80° W 23:38:05 10° N
H-2A R/B 2.7 23:35:13 70° WNW 23:35:13 70° WNW 23:39:11 10° NNW
GP-B 4.1 23:37:27 10° NNW 23:41:29 36° W 23:41:46 35° W
Cosmos 1486 Rocket 3.8 23:41:55 77° SE 23:42:04 78° ESE 23:47:16 10° NNE
Cosmos 2360 Rocket 3.7 23:39:12 10° NW 23:43:35 23° W 23:44:17 23° WSW
Nadezhda 1 Rocket 4.1 23:38:37 10° NNW 23:44:51 65° W 23:46:09 52° SW
Cosmos 1782 Rocket 4.1 23:46:47 10° NNW 23:50:34 50° WNW 23:50:34 50° WNW
Cosmos 2333 Rocket 3.8 23:48:12 10° NW 23:52:31 22° W 23:53:07 22° WSW
